Date,TemperatureHighF,TemperatureAvgF,TemperatureLowF,DewpointHighF,DewpointAvgF,DewpointLowF,HumidityHigh,HumidityAvg,HumidityLow,PressureMaxIn,PressureMinIn,WindSpeedMaxMPH,WindSpeedAvgMPH,GustSpeedMaxMPH,PrecipitationSumIn
2013-1-1,29.7,28.1,27.1,28.1,26.2,24.6,94,92,89,30.19,30.03,6,0,10,0.00
2013-1-2,34.7,30.7,28.0,31.5,28.2,25.8,93,90,87,30.39,30.04,15,2,19,0.00
2013-1-3,43.9,37.0,26.4,37.3,32.0,24.4,93,82,70,30.48,30.27,10,1,10,0.00
2013-1-4,49.8,45.0,41.2,41.3,38.7,37.3,88,79,66,30.27,30.03,17,3,18,0.00
2013-1-5,51.3,45.2,38.1,44.1,36.7,25.3,93,73,56,30.13,29.91,20,5,20,0.02
2013-1-6,38.8,36.4,33.1,34.8,27.9,23.9,91,72,58,30.15,29.93,17,4,24,0.00
2013-1-7,38.5,33.1,26.2,34.7,26.2,18.6,88,76,61,30.38,29.98,6,1,6,0.00
2013-1-8,32.2,26.8,19.0,26.6,20.8,15.0,90,78,61,30.38,30.18,8,0,8,0.00
2013-1-9,30.0,28.8,25.2,27.7,26.4,22.9,92,90,89,30.19,30.09,5,0,7,0.00
2013-1-10,35.4,28.5,24.6,33.6,26.5,22.6,93,92,91,30.09,29.74,8,0,10,0.00
2013-1-11,39.0,33.0,28.6,37.4,29.1,22.2,94,86,72,29.96,29.70,20,3,21,0.04
2013-1-12,32.7,29.1,25.2,25.1,22.7,19.6,86,77,65,30.08,29.96,12,2,14,0.04
2013-1-13,31.3,28.9,26.6,27.4,25.4,23.8,89,87,81,30.10,30.05,5,0,6,0.00
2013-1-14,34.7,31.0,26.8,32.0,28.6,23.8,93,91,87,30.08,29.86,9,1,13,0.00
2013-1-15,36.3,34.5,32.4,34.8,32.9,30.7,94,94,93,29.88,29.68,5,0,15,0.00
2013-1-16,36.1,34.3,30.0,34.8,32.4,27.7,95,93,88,29.68,29.52,17,2,20,0.00
2013-1-17,36.7,34.7,33.6,34.2,32.8,31.8,94,93,90,29.66,29.51,5,0,12,0.00
2013-1-18,36.7,32.8,27.5,33.9,29.6,25.0,94,88,80,29.63,29.47,17,3,18,0.00
2013-1-19,28.9,27.3,25.5,25.0,23.2,21.1,90,84,78,29.60,29.45,17,3,19,0.00
2013-1-20,34.7,31.3,28.2,32.9,29.0,24.6,93,91,86,29.59,29.48,8,1,12,0.00
2013-1-21,39.9,36.7,34.5,38.6,35.2,32.7,95,94,93,29.49,29.37,14,1,22,0.00
2013-1-22,35.2,31.3,28.6,33.4,28.3,24.8,93,89,84,29.62,29.39,20,7,21,0.00
2013-1-23,33.1,29.9,27.0,29.1,26.2,23.1,89,86,84,29.81,29.62,15,3,20,0.10
2013-1-24,33.1,31.4,30.6,31.3,28.6,25.2,94,89,78,29.81,29.69,7,1,12,0.10
2013-1-25,36.1,30.7,27.5,25.7,22.6,19.0,82,72,63,29.94,29.71,15,3,16,0.00
2013-1-26,32.7,28.1,24.6,24.1,21.1,18.4,79,75,68,30.02,29.91,10,2,14,0.00
2013-1-27,31.5,26.7,18.1,27.0,21.0,14.6,87,79,69,30.02,29.86,6,0,8,0.00
2013-1-28,33.4,31.3,29.8,30.5,28.4,26.7,91,89,86,30.11,29.86,11,1,13,0.00
2013-1-29,39.0,32.7,24.3,35.6,29.7,21.8,93,88,82,30.13,29.97,14,1,16,0.00
2013-1-30,45.0,40.4,36.1,43.3,38.7,34.3,95,94,92,29.98,29.77,6,1,15,0.00
2013-1-31,50.2,45.1,36.3,43.7,35.9,30.1,94,71,54,30.00,29.75,17,4,21,0.00
2013-2-1,51.4,45.1,40.1,37.8,34.9,31.4,77,68,54,29.85,29.47,12,2,14,0.00
2013-2-2,44.1,41.6,39.7,42.2,37.7,34.6,93,86,77,29.47,29.24,17,2,20,0.43
2013-2-3,41.0,36.1,32.2,34.7,30.3,24.8,86,80,68,29.94,29.44,19,6,22,0.06
2013-2-4,39.7,35.1,29.1,33.1,28.9,23.4,89,78,68,29.94,29.88,11,1,12,0.06
2013-2-5,42.1,37.7,31.6,37.4,33.9,29.3,93,86,77,29.92,29.60,6,0,10,0.00
2013-2-6,39.9,36.9,32.7,37.3,34.8,30.2,93,92,72,29.60,29.44,10,0,10,0.28
2013-2-7,35.4,33.4,30.4,32.3,30.2,25.0,93,88,78,29.74,29.40,17,4,18,0.12
2013-2-8,38.3,30.9,24.1,29.0,24.8,20.5,87,78,64,29.84,29.73,14,2,14,0.12
2013-2-9,35.2,28.5,22.3,27.5,24.4,19.4,90,84,69,29.93,29.84,5,0,6,0.00
2013-2-10,32.2,29.8,26.6,29.3,26.8,24.1,90,88,85,29.91,29.82,4,0,5,0.02
2013-2-11,31.8,28.0,25.0,27.4,24.9,21.7,91,88,81,29.94,29.87,6,0,7,0.02
2013-2-12,36.0,31.8,25.9,32.1,28.0,22.8,91,86,78,29.91,29.81,13,1,14,0.00
2013-2-13,43.7,37.4,34.2,38.1,34.2,32.0,93,88,78,30.02,29.86,16,2,17,0.06
2013-2-14,39.2,36.6,33.6,36.8,34.1,30.9,94,91,85,30.12,30.02,14,1,16,0.06
2013-2-15,44.8,38.7,35.8,40.2,36.1,34.0,95,90,81,30.10,30.03,16,2,17,0.06
2013-2-16,43.7,37.1,29.1,35.1,32.5,26.3,91,83,68,30.17,30.09,14,5,18,0.00
2013-2-17,37.8,34.5,28.2,32.3,31.0,25.7,92,87,80,30.20,30.15,3,0,4,0.00
2013-2-18,39.9,34.9,29.3,33.0,30.5,26.5,90,84,75,30.17,30.09,8,1,9,0.00
2013-2-19,41.2,35.4,30.7,32.2,29.3,26.5,90,79,60,30.09,29.84,8,1,8,0.06
2013-2-20,39.7,34.4,27.1,32.6,28.9,22.9,90,80,66,30.06,29.84,14,2,16,0.08
2013-2-21,38.8,31.8,23.7,26.5,22.9,18.8,88,71,47,30.07,29.94,12,1,13,0.00
2013-2-22,33.4,31.6,28.9,31.5,28.1,23.0,93,87,71,29.94,29.74,10,1,12,0.00
2013-2-23,39.4,36.4,33.1,37.8,34.7,31.3,94,93,92,29.82,29.68,10,0,16,0.32
2013-2-24,44.8,42.5,38.8,42.7,40.6,37.3,95,93,87,29.91,29.77,6,0,13,0.32
2013-2-25,49.1,46.1,43.9,44.3,42.4,40.6,94,87,81,30.13,29.91,12,0,14,0.02
2013-2-26,55.9,49.0,43.9,46.0,43.2,40.1,88,81,68,30.14,30.08,4,0,13,0.02
2013-2-27,48.9,44.3,40.3,42.8,39.6,36.4,89,84,73,30.30,30.13,11,3,14,0.02
2013-2-28,52.3,42.7,35.2,40.7,36.2,31.2,91,79,55,30.32,30.17,5,0,7,0.02
2013-3-1,40.5,37.1,30.0,36.8,32.8,27.7,93,84,73,30.17,29.99,17,2,54,0.00
2013-3-2,47.3,39.8,31.6,30.8,28.1,25.3,81,64,47,30.15,30.04,12,4,14,0.00
2013-3-3,47.7,39.9,30.7,31.8,28.6,25.0,80,64,49,30.12,30.00,12,4,16,0.00
2013-3-4,49.3,37.8,28.6,30.5,26.8,23.7,82,66,44,30.34,30.07,12,3,14,0.00
2013-3-5,53.4,37.4,25.5,30.0,24.8,20.8,88,64,28,30.36,30.14,13,1,13,0.00
2013-3-6,49.1,40.9,30.7,38.2,33.1,25.6,83,74,62,30.14,29.81,4,0,6,0.00
2013-3-7,55.2,48.5,42.4,47.1,43.4,37.9,90,83,73,29.81,29.66,7,0,8,0.00
2013-3-8,58.3,50.0,45.3,50.4,46.2,42.0,91,87,75,29.68,29.59,12,0,12,0.00
2013-3-9,57.0,51.1,48.0,50.8,47.7,45.4,95,88,78,29.59,29.55,10,1,10,0.02
2013-3-10,55.9,50.2,46.2,48.3,46.0,44.1,94,86,70,29.55,29.45,10,1,12,0.02
2013-3-11,59.5,47.9,37.6,49.5,40.7,33.3,94,77,51,29.56,29.45,12,2,16,0.02
2013-3-12,56.5,47.6,37.0,43.7,38.2,31.3,86,70,56,29.57,29.43,9,1,13,0.04
2013-3-13,51.4,46.5,41.4,45.6,42.8,38.3,92,87,78,29.46,29.40,8,1,11,0.04
2013-3-14,45.0,36.8,28.6,41.9,34.3,25.8,93,91,86,29.45,29.27,21,4,21,0.59
2013-3-15,33.4,29.5,25.9,25.8,22.0,18.5,89,74,58,29.90,29.27,22,7,22,0.04
2013-3-16,36.7,30.9,23.7,21.4,18.5,15.2,71,60,48,30.15,29.90,14,3,17,0.04
2013-3-17,37.9,29.3,18.7,24.6,18.6,14.3,86,66,40,30.17,30.00,14,1,19,0.00
2013-3-18,38.8,33.9,30.0,34.9,27.4,19.3,92,77,63,30.00,29.36,13,1,13,0.50
2013-3-19,52.3,42.4,36.4,38.9,35.0,29.2,93,77,49,29.69,29.28,16,2,17,0.57
2013-3-20,59.7,46.6,31.8,41.6,36.4,27.5,88,70,44,29.75,29.69,16,1,16,0.00
2013-3-21,46.9,42.8,36.3,42.5,39.0,30.1,92,86,79,29.78,29.72,21,5,29,0.30
2013-3-22,43.7,37.3,30.7,31.5,27.9,24.1,79,69,57,29.95,29.75,22,8,29,0.30
2013-3-23,35.2,30.8,26.6,26.4,24.4,22.3,87,77,68,30.10,29.95,13,1,56,0.08
2013-3-24,35.4,29.8,23.5,25.3,14.4,11.7,83,53,40,30.19,30.08,7,1,7,0.08
2013-3-25,37.2,31.7,28.9,27.5,18.4,10.9,90,60,44,30.08,29.72,10,1,10,0.00
2013-3-26,33.4,30.2,28.0,28.7,26.9,25.2,90,87,82,29.76,29.67,6,1,13,0.00
2013-3-27,34.9,31.4,28.2,30.5,28.3,25.7,91,88,83,29.94,29.75,6,0,6,0.26
2013-3-28,34.9,33.4,31.6,30.0,29.1,27.6,91,84,75,30.03,29.93,2,0,4,0.24
2013-3-29,36.9,34.6,32.5,34.8,32.2,29.8,93,91,85,29.98,29.73,5,0,7,0.67
2013-3-30,48.7,40.6,32.9,41.0,37.1,31.4,94,88,73,29.73,29.55,12,0,12,0.24
2013-3-31,47.3,40.9,33.1,45.8,38.5,28.5,95,91,83,29.62,29.36,18,3,20,0.30
2013-4-1,45.1,36.8,32.2,30.6,28.4,27.1,84,72,54,29.88,29.61,14,4,18,0.33
2013-4-2,45.0,39.4,32.7,38.4,32.2,27.4,91,76,62,29.88,29.63,9,2,13,0.36
2013-4-3,44.8,40.8,37.2,43.2,38.7,34.6,94,92,90,29.73,29.59,19,4,19,0.02
2013-4-4,45.3,39.5,36.1,38.2,34.8,32.5,90,83,75,29.86,29.71,18,4,22,0.02
2013-4-5,44.4,39.9,33.6,41.0,37.2,30.9,93,90,80,29.85,29.63,7,0,7,0.10
2013-4-6,50.5,43.2,38.3,41.0,37.7,32.8,93,81,67,29.99,29.70,17,5,18,0.10
2013-4-7,48.4,41.9,37.9,39.0,35.4,32.8,85,78,68,30.01,29.91,12,1,14,0.00
2013-4-8,53.2,44.6,37.9,37.2,32.2,28.6,80,63,43,29.93,29.80,9,1,10,0.00
2013-4-9,53.6,46.7,42.1,42.8,40.0,37.2,86,78,63,29.81,29.75,8,1,11,0.00
2013-4-10,59.4,49.4,44.4,48.4,43.0,38.6,93,79,57,29.90,29.75,9,1,13,0.04
2013-4-11,67.3,54.1,37.0,47.1,42.0,33.4,89,65,45,29.94,29.81,12,2,18,0.00
2013-4-12,66.0,55.0,47.3,52.1,47.5,42.1,90,77,54,29.84,29.71,11,2,14,0.18
2013-4-13,63.7,52.7,42.4,47.5,44.1,38.8,90,74,48,30.22,29.83,16,3,20,0.18
2013-4-14,65.5,53.5,40.1,46.2,38.8,34.6,89,60,36,30.34,30.22,11,2,14,0.00
2013-4-15,65.5,51.1,37.0,44.2,38.4,34.0,90,65,35,30.36,30.24,7,0,10,0.00
2013-4-16,69.6,53.4,36.3,44.2,38.2,32.8,88,60,33,30.30,30.20,6,0,10,0.00
2013-4-17,73.0,55.3,38.8,49.4,41.4,34.7,87,63,32,30.26,30.17,7,0,13,0.00
2013-4-18,75.7,59.3,42.4,50.1,43.3,39.4,90,60,29,30.19,30.04,8,0,9,0.00
2013-4-19,77.5,61.6,42.6,53.9,44.2,38.1,86,57,30,30.10,29.98,12,1,13,0.00
2013-4-20,77.9,63.0,48.7,55.1,50.2,42.0,90,68,29,30.09,30.01,10,1,13,0.10
2013-4-21,75.0,62.2,51.1,51.2,47.7,44.1,83,61,40,30.10,29.94,7,1,9,0.10
2013-4-22,75.7,60.6,44.4,49.4,45.4,40.2,87,60,36,29.99,29.89,6,0,7,0.00
2013-4-23,74.8,61.1,48.0,54.2,49.7,44.6,90,69,42,30.21,29.99,12,1,12,0.00
2013-4-24,77.7,65.7,50.2,53.9,47.8,43.0,82,55,35,30.32,30.21,9,1,13,0.00
2013-4-25,80.4,64.8,46.0,54.0,48.0,42.1,88,58,28,30.26,30.13,11,1,16,0.02
2013-4-26,84.4,66.7,48.6,55.6,48.6,43.0,89,57,27,30.13,29.75,12,1,12,0.02
2013-4-27,81.3,69.6,56.5,56.6,51.3,45.5,70,53,38,29.75,29.67,16,2,21,0.02
2013-4-28,78.6,67.5,57.4,60.6,54.3,49.0,86,64,45,29.97,29.72,15,1,18,0.02
2013-4-29,84.4,68.9,51.6,57.4,53.3,49.1,92,62,36,30.06,29.97,12,2,20,0.24
2013-4-30,86.2,70.7,55.6,62.1,55.6,51.4,88,62,36,30.09,29.97,8,0,9,0.24
2013-5-1,85.6,71.0,57.9,62.0,56.9,51.1,82,63,39,30.08,29.99,8,1,11,0.00
2013-5-2,83.5,69.0,57.6,64.1,59.1,53.4,91,73,49,30.04,29.83,18,1,18,0.88
2013-5-3,75.0,64.4,55.9,65.3,59.4,52.6,94,84,66,29.88,29.78,18,1,20,0.10
2013-5-4,70.3,61.4,52.7,57.6,53.7,49.4,90,76,62,30.05,29.86,15,2,18,0.10
2013-5-5,76.3,64.8,52.3,60.2,55.6,49.2,91,74,53,30.15,30.04,9,1,12,0.00
2013-5-6,77.2,65.2,58.3,62.2,57.9,53.7,92,78,55,30.12,30.02,10,0,12,0.20
2013-5-7,73.4,64.8,58.3,63.9,60.1,56.6,94,85,69,30.06,29.97,12,0,12,0.02
2013-5-8,76.3,64.7,56.3,63.9,57.9,54.3,94,80,49,30.04,29.95,7,0,7,0.08
2013-5-9,78.6,65.9,54.3,62.0,55.6,52.3,94,72,45,30.05,29.97,12,0,51,0.08
2013-5-10,79.5,65.9,51.4,59.6,53.0,48.5,91,66,41,30.00,29.81,12,1,17,0.00
2013-5-11,72.1,63.5,57.4,63.0,57.4,53.2,89,81,71,29.86,29.75,16,4,21,0.02
2013-5-12,64.6,58.2,54.5,55.7,52.1,48.5,89,80,72,29.80,29.72,18,5,22,0.02
2013-5-13,63.3,57.0,51.6,49.0,45.8,39.6,79,67,51,29.93,29.80,22,5,22,0.00
2013-5-14,65.1,56.2,48.9,50.5,46.7,42.9,88,71,56,29.94,29.88,16,3,23,0.00
2013-5-15,73.8,60.8,45.9,55.7,50.7,43.2,92,71,50,29.89,29.76,6,1,8,0.00
2013-5-16,77.4,64.7,48.7,58.7,53.7,46.2,92,70,49,29.81,29.66,10,1,12,0.02
2013-5-17,71.2,65.2,56.8,61.0,58.3,51.2,91,79,63,29.72,29.66,8,1,12,0.55
2013-5-18,75.4,63.7,53.8,56.3,53.8,49.9,93,73,44,29.93,29.67,11,1,13,0.02
2013-5-19,82.0,66.9,49.5,58.2,53.8,47.1,93,66,41,29.93,29.73,14,1,14,0.12
2013-5-20,71.8,62.1,53.2,56.9,52.2,48.1,91,71,48,29.93,29.79,10,1,10,0.12
2013-5-21,72.5,61.8,50.4,53.1,49.6,46.5,90,66,45,29.93,29.80,7,1,10,0.00
2013-5-22,69.1,59.3,51.6,54.5,50.4,46.5,86,73,54,29.81,29.64,10,1,10,0.02
2013-5-23,66.4,57.7,51.4,51.3,47.2,42.6,88,68,57,29.70,29.55,16,3,18,0.02
2013-5-24,66.2,57.6,50.7,51.2,46.6,42.2,74,67,58,29.73,29.59,12,3,14,0.00
2013-5-25,64.9,56.7,50.5,50.3,47.2,44.8,83,71,55,29.76,29.69,9,2,13,0.04
2013-5-26,64.4,55.7,49.3,53.2,46.3,39.6,90,72,49,29.78,29.69,11,2,12,0.22
2013-5-27,59.2,52.5,47.3,47.1,43.6,38.6,84,72,63,29.82,29.77,12,1,12,0.00
2013-5-28,69.6,58.1,49.1,55.3,48.8,43.2,83,72,57,29.81,29.68,7,1,12,0.00
2013-5-29,76.8,62.5,47.5,60.3,53.5,44.9,92,74,52,29.69,29.53,8,1,8,0.00
2013-5-30,63.7,59.1,52.9,59.5,55.1,48.8,93,87,79,29.57,29.45,8,1,8,0.63
2013-5-31,66.4,56.1,48.0,53.0,49.2,45.2,91,79,56,29.60,29.51,9,1,12,0.63
2013-6-1,68.2,56.8,44.8,54.3,49.5,42.6,93,78,56,29.70,29.59,7,1,10,0.00
2013-6-2,68.2,58.6,48.6,56.7,52.0,45.8,92,79,59,29.84,29.68,10,1,14,0.00
2013-6-3,62.1,56.7,52.5,54.4,51.0,47.9,88,81,72,29.91,29.83,22,6,22,0.00
2013-6-4,69.6,58.2,52.5,59.6,53.3,48.1,89,84,68,29.91,29.83,17,5,17,0.06
2013-6-5,70.5,60.9,54.7,61.9,56.6,52.0,91,86,70,30.01,29.91,11,2,12,0.08
2013-6-6,70.7,62.1,53.8,63.7,57.7,51.1,93,86,73,30.06,30.00,11,1,13,0.12
2013-6-7,79.0,63.8,56.3,64.2,57.7,54.6,95,82,49,30.03,29.94,9,0,11,0.12
2013-6-8,83.3,67.0,57.0,62.6,58.6,54.7,92,77,44,30.00,29.86,5,0,8,0.00
2013-6-9,83.7,70.9,56.1,65.4,59.1,53.8,93,69,46,29.88,29.74,6,1,10,0.00
2013-6-10,82.4,69.3,60.1,62.1,59.8,57.1,93,74,46,29.78,29.65,12,1,12,0.18
2013-6-11,73.9,62.6,56.3,62.3,58.1,50.9,94,86,62,29.86,29.73,12,2,13,0.49
2013-6-12,75.9,64.3,53.2,64.0,56.2,49.6,89,76,56,30.06,29.86,13,2,13,0.26
2013-6-13,81.3,69.5,55.4,59.8,56.0,50.7,88,64,42,30.08,29.98,8,1,8,0.26
2013-6-14,84.2,71.0,55.2,64.1,59.3,52.3,92,69,45,30.01,29.94,14,2,14,0.00
2013-6-15,86.5,72.8,59.4,66.4,62.0,56.4,92,71,47,29.99,29.91,7,0,8,0.04
2013-6-16,89.1,74.7,62.2,68.3,64.5,59.6,92,73,47,30.01,29.95,4,0,7,0.04
2013-6-17,91.9,77.2,62.4,71.2,65.8,60.1,93,70,44,30.02,29.96,6,0,6,0.00
2013-6-18,94.3,79.8,65.1,71.8,66.1,62.4,92,66,39,30.03,29.95,8,0,8,0.02
2013-6-19,96.3,82.1,65.3,72.0,67.3,61.3,89,64,39,30.00,29.93,5,0,6,0.00
2013-6-20,96.4,82.5,69.3,74.8,69.9,65.4,89,68,42,30.00,29.88,7,1,8,0.00
2013-6-21,93.4,82.1,70.0,74.0,69.1,66.6,91,67,43,29.92,29.87,7,1,12,0.00
2013-6-22,93.0,80.1,68.2,74.4,68.4,64.8,90,70,43,29.93,29.83,10,1,12,0.00
2013-6-23,85.1,75.2,66.6,71.5,67.1,62.6,93,77,54,29.89,29.80,13,1,14,0.02
2013-6-24,76.3,65.7,57.6,64.2,59.6,54.8,92,81,64,29.84,29.75,18,5,24,0.34
2013-6-25,62.4,58.1,54.5,57.2,54.5,51.4,91,88,82,29.99,29.77,16,2,18,0.06
2013-6-26,65.1,59.1,53.6,53.6,51.3,48.6,90,76,63,30.18,29.99,20,5,20,0.08
2013-6-27,70.3,59.7,53.4,57.6,52.1,47.1,85,76,62,30.18,30.09,10,2,13,0.00
2013-6-28,75.4,61.4,52.5,58.6,54.8,49.7,93,80,52,30.10,29.99,12,1,12,0.23
2013-6-29,77.5,65.1,56.1,60.2,55.3,51.0,93,73,45,30.02,29.91,34,2,34,0.23
2013-6-30,76.6,64.9,54.9,58.7,53.4,46.7,85,67,49,30.04,29.95,21,4,22,0.00
2013-7-1,75.6,63.8,51.6,54.6,49.7,44.6,79,61,45,30.08,30.04,14,2,16,0.00
2013-7-2,82.2,66.7,50.5,57.1,52.2,47.1,89,63,37,30.11,30.00,7,0,7,0.00
2013-7-3,85.6,70.2,53.1,59.2,54.6,49.9,90,62,36,30.03,29.92,7,0,8,0.00
2013-7-4,88.7,74.1,55.0,62.5,57.8,51.5,90,60,37,30.04,29.97,10,1,10,0.00
2013-7-5,86.2,73.4,61.5,68.4,62.5,56.0,89,71,46,30.13,30.03,12,1,20,0.38
2013-7-6,85.6,72.4,62.6,75.6,65.1,60.5,94,79,54,30.20,30.11,13,1,16,0.34
2013-7-7,87.1,76.8,66.9,67.4,63.7,60.5,80,65,46,30.22,30.14,9,1,13,0.34
2013-7-8,85.5,74.6,64.8,64.9,60.6,57.5,80,63,48,30.24,30.15,8,1,8,0.00
2013-7-9,84.9,73.0,62.4,63.3,59.1,55.3,81,63,45,30.21,30.00,6,1,11,0.00
2013-7-10,87.3,73.9,58.6,65.0,60.0,55.3,90,64,42,30.01,29.80,12,1,12,0.00
2013-7-11,76.6,69.6,60.4,63.6,57.8,50.3,87,67,50,29.94,29.78,17,2,20,0.00
2013-7-12,76.5,66.1,56.8,57.5,53.4,50.6,80,65,46,30.02,29.93,13,3,16,0.00
2013-7-13,77.7,67.9,58.5,59.0,54.8,51.2,79,64,47,30.03,29.99,15,3,16,0.00
2013-7-14,82.0,70.6,58.8,56.5,54.1,51.3,79,58,40,30.03,29.96,14,3,22,0.00
2013-7-15,80.2,69.6,61.0,60.3,55.0,49.7,78,61,40,30.07,29.95,14,2,17,0.00
2013-7-16,82.2,69.9,56.5,55.9,52.8,48.6,77,56,38,30.16,30.07,9,1,12,0.00
2013-7-17,86.5,71.3,57.4,60.4,56.5,51.4,84,62,39,30.18,30.07,6,0,7,0.00
2013-7-18,87.6,73.1,58.1,63.6,58.6,53.8,87,63,39,30.13,30.04,6,0,6,0.00
2013-7-19,89.4,75.2,66.4,66.6,61.9,55.9,81,65,43,30.08,29.92,9,1,9,0.00
2013-7-20,87.6,76.8,63.1,63.8,58.2,54.1,79,54,41,30.04,29.91,12,2,15,0.00
2013-7-21,82.6,71.2,59.0,56.7,53.6,49.7,74,55,39,30.10,30.03,6,1,9,0.00
2013-7-22,88.2,72.7,55.6,59.9,55.3,50.3,85,57,34,30.11,29.91,7,1,9,0.00
2013-7-23,91.6,76.4,61.0,63.8,56.4,52.4,75,53,31,29.91,29.84,13,1,13,0.00
2013-7-24,91.2,75.6,60.1,58.6,52.4,44.6,82,48,25,29.95,29.87,12,1,14,0.00
2013-7-25,81.5,71.2,59.2,63.1,56.1,47.4,77,60,49,29.98,29.91,3,0,7,0.00
2013-7-26,91.4,75.6,60.6,64.8,60.4,55.8,85,62,38,29.99,29.90,5,0,8,0.00
2013-7-27,96.1,78.5,62.8,70.3,63.8,58.1,86,63,38,29.95,29.87,6,0,8,0.00
2013-7-28,98.2,82.1,66.7,69.2,63.3,59.9,87,57,30,29.95,29.90,7,1,11,0.00
2013-7-29,100.2,83.2,66.9,68.8,61.5,54.9,81,50,35,29.95,29.79,8,1,12,0.00
2013-7-30,83.5,71.4,68.5,65.9,63.2,59.2,84,76,53,29.97,29.80,17,4,22,0.28
2013-8-14,73.2,66.1,61.3,56.0,53.3,49.6,81,65,45,30.12,30.05,13,4,13,0.02
2013-8-15,80.4,67.6,54.1,55.4,51.9,47.9,84,59,36,30.19,30.11,10,1,10,0.20
2013-8-16,84.0,67.2,50.9,54.2,49.7,45.9,85,57,31,30.18,30.05,10,1,10,0.00
2013-8-17,87.8,69.5,52.0,55.0,49.6,44.2,83,53,27,30.09,29.97,8,1,8,0.18
2013-8-18,92.1,72.7,54.0,60.6,51.7,47.4,81,52,26,30.04,29.94,8,1,8,0.00
2013-8-19,94.6,75.3,57.0,60.6,54.4,50.0,80,52,26,30.00,29.91,11,1,11,0.00
2013-8-20,79.9,71.3,64.8,64.6,61.2,55.4,81,71,48,30.15,29.96,23,10,23,0.00
2013-8-21,79.7,70.1,62.8,63.1,59.2,55.5,82,69,56,30.19,30.13,20,7,20,0.00
2013-8-22,81.3,68.5,56.5,60.2,56.2,52.3,88,67,46,30.16,30.04,9,1,9,0.00
2013-8-23,83.3,69.7,54.7,57.4,54.0,49.3,84,59,39,30.11,29.98,7,1,8,0.00
2013-8-24,78.6,69.0,57.9,56.8,53.5,51.0,80,59,42,30.05,29.92,12,1,12,0.00
2013-8-25,81.7,69.4,61.2,60.6,55.8,51.9,86,64,41,29.94,29.83,6,1,6,0.02
2013-8-26,70.9,65.4,60.6,64.4,60.9,58.6,93,86,73,29.93,29.87,8,0,8,0.71
2013-8-27,75.6,66.4,60.8,62.5,60.1,58.2,94,81,60,29.95,29.87,8,1,8,0.71
2013-8-28,73.9,64.6,59.4,63.7,59.5,56.4,93,84,65,29.92,29.85,10,1,11,0.59
2013-8-29,77.7,65.4,58.6,62.5,58.5,54.9,93,80,52,30.10,29.92,18,2,18,0.08
2013-8-30,76.1,64.3,56.5,60.4,56.8,53.9,94,79,50,30.13,30.05,7,1,7,0.10
2013-8-31,80.4,64.7,50.9,60.4,54.0,48.9,95,71,41,30.11,30.03,14,1,14,0.00
2013-9-1,76.8,65.9,54.5,60.5,54.9,47.8,86,68,51,30.16,30.03,13,2,22,0.00
2013-9-2,72.1,61.6,53.4,50.8,47.8,45.9,76,62,42,30.22,30.11,10,4,20,0.00
2013-9-3,75.8,66.2,57.9,61.9,54.1,48.5,83,66,53,30.23,30.04,12,4,25,0.00
2013-9-4,77.5,63.1,50.2,54.2,49.8,45.9,87,64,36,30.28,30.17,5,1,12,0.00
2013-9-5,79.3,62.4,49.3,54.9,50.4,46.2,90,68,40,30.18,30.04,5,0,6,0.00
2013-9-6,78.1,62.5,48.5,54.6,50.5,44.9,90,67,42,30.08,29.99,3,0,8,0.00
2013-9-7,80.6,66.1,50.4,53.1,49.8,46.0,85,59,36,30.17,30.06,8,1,8,0.00
2013-9-8,82.2,63.6,47.7,54.0,49.4,44.6,91,64,33,30.24,30.12,7,1,7,0.00
2013-9-9,65.1,58.3,53.2,58.3,53.5,47.8,93,84,64,30.13,30.03,4,0,4,0.16
2013-9-10,72.9,59.9,50.9,61.9,55.3,48.9,95,86,60,30.12,29.96,12,1,12,0.16
2013-9-11,68.4,58.6,53.4,58.2,53.6,48.4,94,84,61,29.98,29.91,18,5,18,0.08
2013-9-12,70.0,61.5,54.9,54.3,51.1,48.3,85,70,51,29.96,29.91,14,3,14,0.08
2013-9-13,68.2,58.6,53.2,53.4,50.0,47.4,82,73,58,30.01,29.95,20,6,20,0.00
2013-9-14,60.4,56.4,54.3,55.6,52.7,49.8,91,87,81,29.99,29.88,19,5,19,0.20
2013-9-15,74.8,63.1,52.2,60.8,56.1,49.6,92,79,60,29.93,29.75,16,3,17,0.20
2013-9-16,78.4,63.4,52.7,64.0,57.0,51.0,95,81,54,29.75,29.55,12,1,12,0.00
2013-9-17,60.8,54.9,49.1,59.1,50.4,41.5,94,85,71,29.68,29.42,36,8,36,0.04
2013-9-18,64.6,55.0,46.0,50.3,46.2,42.4,88,73,48,29.68,29.55,14,3,14,0.04
2013-9-19,63.7,57.4,51.4,53.1,47.8,43.0,88,71,50,29.93,29.55,24,7,24,0.00
2013-9-20,66.2,56.7,48.0,51.8,47.6,43.7,87,73,54,30.04,29.93,22,5,22,0.00
2013-9-21,67.8,59.4,53.4,54.3,51.4,46.6,86,75,58,30.25,30.03,18,7,18,0.00
2013-9-22,67.8,57.4,45.7,52.5,48.0,42.6,91,72,50,30.31,30.18,14,3,14,0.00
2013-9-23,68.7,60.8,54.5,56.3,51.8,45.5,78,72,62,30.18,29.95,23,8,23,0.00
2013-9-24,68.5,62.2,56.1,55.4,52.1,49.5,80,70,60,29.95,29.90,23,8,23,0.00
2013-9-25,68.7,59.1,50.5,54.8,51.1,46.8,89,76,60,30.00,29.90,14,2,14,0.00
2013-9-26,72.0,58.4,49.3,62.3,53.6,46.5,93,85,62,29.95,29.80,17,3,17,0.08
2013-9-27,60.6,52.0,43.9,51.3,45.9,41.1,90,80,63,30.09,29.95,12,1,12,0.08
2013-9-28,65.5,49.6,38.8,49.9,42.1,36.7,94,78,45,30.04,29.95,7,0,7,0.00
2013-9-29,62.4,52.2,41.4,46.5,42.3,38.0,91,71,51,30.02,29.92,8,1,8,0.00
2013-9-30,62.8,54.3,48.6,45.4,41.4,37.8,68,62,51,29.92,29.79,12,2,12,0.00
2013-10-1,66.7,54.9,48.9,45.8,41.9,38.4,75,62,45,29.96,29.79,13,2,13,0.00
2013-10-2,55.2,50.6,40.3,41.0,35.6,29.0,68,57,42,30.34,29.96,10,3,10,0.00
2013-10-3,56.1,44.4,33.4,30.7,28.5,25.8,77,55,36,30.51,30.34,15,2,15,0.00
2013-10-4,55.6,39.4,28.0,33.6,28.5,24.3,87,68,38,30.53,30.41,6,1,6,0.00
2013-10-5,59.5,42.1,27.5,35.6,30.1,24.1,90,66,36,30.42,30.22,14,1,14,0.00
2013-10-6,64.0,48.2,35.8,41.0,35.9,30.9,84,64,38,30.31,30.24,6,1,6,0.00
2013-10-7,67.8,53.9,44.2,44.1,42.0,39.4,85,66,40,30.38,30.30,7,0,7,0.00
2013-10-8,71.1,52.0,39.0,46.9,40.9,36.3,92,69,35,30.36,30.25,10,1,10,0.00
2013-10-9,64.8,54.1,43.5,49.6,45.0,38.4,86,72,57,30.26,30.02,8,1,8,0.00
2013-10-10,57.2,54.7,52.3,52.7,51.3,48.4,93,88,81,30.02,29.88,7,0,7,0.04
2013-10-11,73.0,60.9,54.3,58.8,54.9,51.7,91,81,61,30.08,29.94,17,2,17,0.02
2013-10-12,75.0,61.6,51.6,62.5,56.5,49.7,94,84,61,30.15,30.06,13,1,13,0.39
2013-10-13,71.8,59.1,48.6,61.5,53.2,44.3,95,82,56,30.19,30.08,16,2,16,0.49
2013-10-14,65.1,52.6,43.3,55.1,47.9,41.2,94,85,67,30.20,30.08,4,0,4,0.00
2013-10-15,65.5,55.0,46.0,58.6,50.8,43.5,95,86,68,30.08,29.80,14,1,14,0.00
2013-10-16,52.3,49.1,44.4,49.0,46.2,42.2,94,90,84,29.80,29.61,26,7,26,0.38
2013-10-17,62.4,52.6,43.5,50.2,45.6,40.5,90,78,55,29.97,29.75,22,9,22,0.38
2013-10-18,58.3,51.0,44.3,49.8,45.4,39.9,91,82,63,30.13,29.91,20,3,20,0.08
2013-10-19,56.8,48.2,39.9,45.1,41.8,36.8,91,79,61,30.29,30.12,9,1,12,0.00
2013-10-20,66.2,52.9,40.5,53.5,46.5,38.0,93,80,60,30.25,30.10,6,1,6,0.00
2013-10-21,70.0,55.9,47.1,57.2,50.8,44.8,94,84,59,30.14,30.08,12,2,12,0.00
2013-10-22,66.7,56.0,47.1,59.3,52.7,45.2,95,89,76,30.16,30.09,8,1,8,0.00
2013-10-23,75.0,63.3,55.2,59.2,56.4,52.0,95,80,56,30.09,29.96,17,2,17,0.00
2013-10-24,73.6,60.2,49.1,59.9,54.3,47.3,95,82,60,30.16,30.04,10,1,10,0.00
2013-10-25,74.3,59.7,49.1,61.6,54.1,47.2,95,83,60,30.19,30.09,6,0,6,0.00
2013-10-26,72.7,57.3,46.9,59.7,51.9,44.8,95,83,60,30.14,30.08,10,1,10,0.00
2013-10-27,70.2,56.6,46.0,58.8,52.1,44.1,95,85,65,30.12,29.91,13,1,13,0.00
2013-10-28,69.8,62.4,54.3,60.9,55.0,50.6,92,77,64,30.03,29.88,13,2,13,0.00
2013-10-29,69.8,58.7,48.4,58.8,52.6,46.6,95,81,61,30.05,29.88,21,4,21,0.08
2013-10-30,61.5,54.8,48.2,52.6,46.7,40.6,91,75,59,30.30,30.04,22,6,22,0.20
2013-10-31,60.4,47.9,39.6,45.1,40.3,36.3,91,76,50,30.38,30.29,9,0,9,0.00
2013-11-1,57.9,50.3,43.3,48.1,43.9,40.2,91,79,64,30.30,30.10,4,0,4,0.00
2013-11-2,63.1,54.8,46.8,54.8,50.4,44.1,93,85,72,30.10,29.86,14,2,14,0.00
2013-11-3,62.8,52.5,46.6,58.9,49.6,43.7,95,90,79,29.89,29.61,22,4,22,0.24
2013-11-4,53.4,49.1,41.4,49.1,44.8,38.6,93,85,71,29.92,29.51,10,1,11,0.04
2013-11-5,53.2,50.0,45.0,51.8,47.7,40.7,95,92,78,29.51,29.44,17,4,17,0.40
2013-11-6,56.1,47.5,38.3,45.0,40.5,34.8,90,77,60,29.85,29.47,16,2,16,0.40
2013-11-7,59.5,51.1,45.0,51.2,45.6,41.3,92,82,66,30.03,29.85,12,2,12,0.00
2013-11-8,57.7,47.3,39.7,51.9,45.0,38.2,95,92,80,30.03,29.95,7,0,7,0.00
2013-11-9,59.5,51.4,45.5,54.2,48.2,43.7,95,89,79,29.95,29.84,17,3,17,0.06
2013-11-10,57.2,50.0,46.6,46.6,45.1,43.0,92,84,66,29.85,29.72,17,3,17,0.08
2013-11-11,53.2,50.7,48.4,46.9,44.3,40.8,92,79,68,30.27,29.79,15,4,15,0.08
2013-11-12,56.8,51.2,46.6,45.9,42.4,38.5,86,72,61,30.33,30.26,11,1,11,0.08
2013-11-13,50.7,47.5,44.2,47.4,43.6,40.0,90,86,85,30.28,30.24,22,5,22,0.00
2013-11-14,47.3,45.4,43.3,43.3,40.7,38.7,91,84,75,30.28,30.13,12,1,12,0.00
2013-11-15,49.6,46.3,44.2,42.2,40.0,37.9,89,79,73,30.38,30.15,6,1,6,0.00
2013-11-16,56.8,46.3,37.9,46.5,41.7,35.6,94,84,64,30.40,30.32,12,1,12,0.00
2013-11-17,48.0,41.8,36.0,44.3,39.4,33.9,94,91,86,30.32,30.23,4,0,4,0.00
2013-11-18,43.9,42.7,41.7,42.3,40.9,39.8,94,93,93,30.24,30.06,7,1,7,0.02
2013-11-19,46.2,43.3,40.6,42.0,40.2,37.8,93,89,82,30.06,29.74,9,2,9,0.02
2013-11-20,51.6,46.8,42.1,47.0,43.8,39.9,93,89,81,29.74,29.55,20,2,20,0.20
2013-11-21,46.6,42.8,37.6,45.2,40.9,35.2,95,93,89,29.69,29.59,17,2,17,0.28
2013-11-22,50.2,48.1,46.0,47.6,46.1,44.7,95,93,90,29.77,29.62,6,0,6,0.28
2013-11-23,53.6,49.0,45.0,48.1,45.3,42.3,91,87,81,29.78,29.71,8,1,8,0.00
2013-11-24,48.4,46.4,42.6,45.3,44.2,39.4,95,92,86,29.72,29.67,18,1,18,0.40
2013-11-25,42.4,37.8,35.2,39.4,31.1,26.9,90,77,66,30.06,29.68,27,10,27,0.46
2013-11-26,39.7,35.9,33.1,30.7,28.3,24.7,82,74,67,30.23,30.05,15,5,15,0.00
2013-11-27,41.4,34.5,27.5,26.7,23.9,21.7,83,66,48,30.44,30.23,15,4,15,0.00
2013-11-28,39.7,33.5,27.1,31.1,25.4,21.5,86,73,51,30.43,30.23,16,6,17,0.00
2013-11-29,44.4,38.6,34.7,35.1,32.2,29.6,84,78,67,30.23,30.05,22,7,22,0.00
2013-11-30,41.2,37.5,32.9,33.2,31.1,28.2,85,78,66,30.17,29.99,10,0,11,0.00
2013-12-1,45.7,39.6,33.6,36.8,31.7,28.5,84,73,62,30.31,30.26,17,5,17,0.00
2013-12-2,47.1,39.5,32.2,37.3,32.3,27.0,88,75,64,30.62,30.25,20,5,20,0.00
2013-12-3,40.3,30.6,25.0,30.6,24.6,21.7,89,79,58,30.64,30.48,7,0,7,0.00
2013-12-4,34.0,26.4,20.8,30.1,23.8,18.1,92,90,85,30.48,30.17,12,1,12,0.00
2013-12-5,41.9,37.5,32.4,34.0,31.0,26.9,87,77,70,30.29,29.87,22,6,22,0.00
2013-12-6,45.0,38.6,35.4,36.8,29.9,25.8,89,71,57,29.90,29.72,36,8,36,0.02
2013-12-7,39.0,35.8,31.8,29.9,26.8,23.7,82,70,56,30.20,29.89,23,11,23,0.02
2013-12-8,42.4,38.7,31.1,36.1,33.4,26.1,87,81,76,30.34,30.19,16,2,16,0.00
2013-12-9,45.7,42.8,34.3,40.9,37.5,30.0,87,82,72,30.30,30.14,24,7,24,0.08
2013-12-10,45.1,36.4,25.5,40.7,30.5,21.7,87,79,64,30.75,30.28,17,3,17,0.08
2013-12-11,37.9,31.7,24.6,26.8,24.3,21.0,87,74,55,30.75,30.59,5,0,5,0.00
2013-12-12,35.8,34.6,33.6,31.8,30.2,26.4,90,84,74,30.60,30.42,8,1,8,0.00
2013-12-13,34.3,33.3,32.2,31.4,30.2,28.9,91,88,86,30.42,30.32,7,1,7,0.00
2013-12-14,33.6,32.1,30.7,30.4,28.9,27.8,89,88,86,30.47,30.34,8,2,8,0.00
2013-12-15,38.1,34.8,32.7,34.9,32.2,30.2,93,90,87,30.58,30.46,15,3,15,0.00
2013-12-16,35.4,34.2,33.1,33.7,32.1,30.5,95,92,89,30.68,30.57,7,1,7,0.00
2013-12-17,33.8,32.9,31.3,31.5,30.5,29.0,93,91,88,30.68,30.53,9,2,9,0.00
2013-12-18,32.7,31.5,30.4,30.4,29.1,27.8,91,91,90,30.53,30.46,7,2,7,0.00
2013-12-19,31.1,30.8,30.4,29.6,29.2,28.6,94,94,93,30.47,30.20,5,2,5,0.00
2013-12-20,33.1,30.8,29.1,31.1,28.9,27.3,94,93,91,30.49,30.24,15,1,15,0.00
2013-12-21,43.5,34.9,29.8,36.2,31.2,27.2,93,86,71,30.63,30.48,17,4,17,0.00
2013-12-22,33.8,32.9,32.2,31.5,30.7,29.8,93,91,90,30.59,30.34,6,1,5,0.00
2013-12-23,40.5,36.8,33.8,37.5,34.4,31.3,94,91,88,30.34,30.29,5,1,5,0.00
2013-12-24,43.0,36.2,30.7,40.8,34.4,29.0,95,93,88,30.30,30.00,8,1,8,0.00
2013-12-25,49.6,37.6,28.6,38.9,32.8,27.1,95,84,63,30.01,29.76,12,1,12,0.02
2013-12-26,45.1,39.8,33.4,42.0,36.7,31.2,93,89,83,29.77,29.61,8,1,8,0.06
2013-12-27,52.0,43.5,34.0,45.3,40.4,32.2,94,89,77,30.01,29.68,7,1,7,0.08
2013-12-28,43.3,35.5,30.6,41.7,33.9,29.0,95,94,93,30.06,29.97,4,0,4,0.00
2013-12-29,46.9,40.5,30.6,44.4,38.1,29.0,96,91,72,30.22,29.96,13,1,13,0.00
2013-12-30,46.9,43.1,37.6,41.7,38.4,34.9,91,84,72,30.37,30.22,15,2,15,0.02
2013-12-31,39.9,37.9,36.5,37.5,35.8,34.4,93,92,87,30.33,30.22,7,0,7,0.02
2014-1-1,39.6,37.8,36.0,35.4,34.3,32.5,91,87,82,30.22,30.13,10,1,11,0.00
2014-1-2,43.3,38.4,31.8,37.3,34.7,29.5,91,87,78,30.13,29.96,7,1,7,0.00